This is the latest recevied weather packets stored in our database for station/object DL9GRB-13. If no packets are shown the sender has not sent any weather packets the latest 10 day(s).
| Time | Temp. | Humidity | Pressure | Rain* | Wind** | Luminosity | Snow |
|---|---|---|---|---|---|---|---|
| 1777830907 | 19.44° C | 69% | 1006.1 hPa | 0 mm | - | 22 W/m² | - |
| 1777830727 | 19.44° C | 69% | 1006.3 hPa | 0 mm | - | 24 W/m² | - |
| 1777830547 | 19.44° C | 69% | 1006.1 hPa | 0 mm | - | 26 W/m² | - |
| 1777830367 | 19.44° C | 69% | 1006.2 hPa | 0 mm | - | 28 W/m² | - |
| 1777830187 | 19.44° C | 68% | 1006.3 hPa | 0 mm | - | 30 W/m² | - |
| 1777830007 | 20° C | 67% | 1006.5 hPa | 0 mm | - | 33 W/m² | - |
| 1777829827 | 20° C | 67% | 1006.2 hPa | 0 mm | - | 37 W/m² | - |
| 1777829647 | 20° C | 67% | 1006.4 hPa | 0 mm | - | 41 W/m² | - |
| 1777829467 | 20° C | 66% | 1006.5 hPa | 0 mm | - | 47 W/m² | - |
| 1777829287 | 20° C | 66% | 1006.4 hPa | 0 mm | - | 57 W/m² | - |
| 1777829107 | 20° C | 65% | 1006.5 hPa | 0 mm | - | 63 W/m² | - |
| 1777828927 | 20.56° C | 65% | 1006.5 hPa | 0 mm | - | 73 W/m² | - |
| 1777828747 | 20.56° C | 65% | 1006.5 hPa | 0 mm | - | 80 W/m² | - |
| 1777828567 | 20.56° C | 64% | 1006.6 hPa | 0 mm | - | 83 W/m² | - |
| 1777828387 | 20.56° C | 64% | 1006.7 hPa | 0 mm | - | 83 W/m² | - |
| 1777828207 | 20.56° C | 63% | 1006.8 hPa | 0 mm | - | 85 W/m² | - |
| 1777828027 | 20.56° C | 63% | 1006.6 hPa | 0 mm | - | 97 W/m² | - |
| 1777827847 | 20.56° C | 63% | 1006.7 hPa | 0 mm | - | 118 W/m² | - |
| 1777827667 | 20.56° C | 63% | 1006.8 hPa | 0 mm | - | 117 W/m² | - |
| 1777827487 | 20.56° C | 63% | 1006.9 hPa | 0 mm | - | 116 W/m² | - |
| 1777827307 | 20.56° C | 62% | 1006.7 hPa | 0 mm | - | 104 W/m² | - |
| 1777827127 | 20.56° C | 62% | 1006.8 hPa | 0 mm | - | 103 W/m² | - |
| 1777826947 | 20.56° C | 63% | 1006.7 hPa | 0 mm | - | 104 W/m² | - |
| 1777826767 | 20° C | 63% | 1007 hPa | 0 mm | - | 114 W/m² | - |
| 1777826587 | 20° C | 63% | 1006.9 hPa | 0 mm | - | 114 W/m² | - |
* Rain latest hour (hover to see other rain measurements)
** Current wind speed in m/s (hover to see current wind gust speed)